Location: Udine
(46.0620°N, 13.2420°E)
Time: 01:52:24
(UTC+02:00)

ISS - Pass Details

Date: 14 May 2021
Orbit: 417 x 422 km, 51.6° (Epoch: 14 June)

Event Time Altitude Azimuth Distance (km) Brightness Sun altitude
Exits shadow 02:51:02 - 297° (WNW) 2,068 -0.2 -20.9°
Reaches altitude 10° 02:52:28 10° 303° (WNW) 1,508 -0.9 -20.7°
Maximum altitude 02:55:40 39° 14° (NNE) 652 -2.3 -20.5°
Drops below altitude 10° 02:58:52 10° 85° (E) 1,507 -0.5 -20.2°
Sets 03:01:03 0° 94° (E) 2,370 0.4 -20.0°
